{"data":{"norad_id":60093,"epoch":"2026-05-25T02:45:13.139424Z","epoch_age_seconds":62146,"freshness":"FRESH","line1":"1 60093U 24117C   26145.11473541 -.00000498  00000+0 -46958-5 0  9996","line2":"2 60093  53.1608  42.4116 0001231  81.3478 278.7662 15.30196812108585","mean_motion":15.30196812,"eccentricity":0.0001231,"inclination_deg":53.1608,"raan_deg":42.4116,"arg_perigee_deg":81.3478,"mean_anomaly_deg":278.7662,"bstar":-4.6958e-6,"rev_number":10858,"period_min":94.105541764781,"perigee_km":474.3809394177,"apogee_km":476.06823704072,"semimajor_km":6853.3615882292,"source":"CELESTRAK","updated_at":"2026-05-25T13:38:19.159999Z"}}